datetime,Ref_CO_ppmv,Ref_CO2_ppmv,Ref_NO2_ppbv,Aeroqual_CO_1_ppmv,Aeroqual_CO_2_ppmv,Aeroqual_NO2_1_ppbv,Aeroqual_NO2_2_ppbv,Cairpol_CO_1_ppmv,Cairpol_CO_2_ppmv,Cairpol_NO2_1_ppbv,Cairpol_NO2_2_ppbv
2017-03-17 15:10,0.17,458.1,,0,0,162,84,0.228,0.153,0,0
2017-03-17 15:11,0.68,471.6,,0,0,168,90,0.427,0.441,2,0
2017-03-17 15:12,0.51,491.8,,0,0,165,89,0.703,0.518,2,0
2017-03-17 15:13,0.28,478.9,,0,0,155,83,0.272,0.188,1,0
2017-03-17 15:14,0.2,467,,0,0,156,82,0.266,0.168,1,1
2017-03-17 15:15,0.56,466,,0,0,157,79,0.595,0.613,1,1
2017-03-17 15:16,2.99,557.7,,0,0,166,97,1.487,1.658,48,52
2017-03-17 15:17,10.73,734.2,,2.84,2.46,229,172,4.561,5.269,221,216
2017-03-17 15:18,30.53,901.6,,21.94,5.08,386,201,20,20,250,250
2017-03-17 15:19,25.87,744.5,,23.75,21.77,415,341,20,20,224,203
2017-03-17 15:20,12.98,582.9,294.9,18.04,16.57,282,231,12.894,12.099,77,52
2017-03-17 15:21,4.69,529.1,290.1,3.49,3.27,175,125,4.817,4.811,44,41
2017-03-17 15:22,7.46,525.6,91.6,0,0,158,90,7.028,6.686,38,31
2017-03-17 15:23,3.53,527.2,92.6,2.82,0,164,94,3.657,3.534,54,46
2017-03-17 15:24,4.48,587.3,160.1,6.76,0.08,200,121,3.226,3.268,115,111
2017-03-17 15:25,8.94,597.2,177.2,11.89,4.65,254,192,7.583,8.15,116,105
2017-03-17 15:26,6.39,573.7,153.4,15.36,10.2,240,174,7.07,6.38,110,94
2017-03-17 15:27,3.03,529.3,94.3,7.16,3.5,232,147,3.727,3.395,42,39
2017-03-17 15:28,3.91,556.8,144.9,4.72,0,187,119,3.368,3.314,88,74
2017-03-17 15:29,4.64,502.9,76.1,8.32,2.78,228,144,3.307,3.589,44,35
2017-03-17 15:30,6.53,531.7,102.3,11.89,6.51,205,130,6.817,6.299,53,48
2017-03-17 15:31,2.14,492.2,38.1,9.5,5.22,212,110,2.115,1.76,24,25
2017-03-17 15:32,5.94,531.4,99.3,5.88,2.14,181,98,6.048,6.02,40,39
2017-03-17 15:33,1.65,477.7,14.4,4.99,2.19,194,114,1.458,1.386,13,8
2017-03-17 15:34,2.94,463.8,13.5,2.89,1.19,169,85,2.999,2.921,2,2
2017-03-17 15:35,3.44,475.7,15.1,1.32,0.79,155,73,2.429,2.431,1,0
2017-03-17 15:36,3.24,470.2,14.6,4.95,4.66,164,74,3.562,3.395,0,1
2017-03-17 15:37,2.41,464.7,11.9,3.68,3.51,160,82,2.267,2.121,2,1
2017-03-17 15:38,1.73,459.1,9.9,1.18,1.23,150,75,2.035,1.871,1,0
2017-03-17 15:39,1.41,459.5,9.1,0,0,134,67,1.494,1.432,3,1
2017-03-17 15:40,0.58,455.7,4.2,0,0,136,65,0.797,0.672,0,0
2017-03-17 15:41,0.47,457.3,3.3,0,0,139,71,0.637,0.543,5,3
2017-03-17 15:42,0.34,464.4,3.7,0,0,142,70,0.536,0.428,1,0
2017-03-17 15:43,0.16,455.2,2.6,0,0,150,71,0.316,0.23,2,1
2017-03-17 15:44,0.2,455.8,2.1,0,0,160,74,0.321,0.257,0,0
2017-03-17 15:45,0.59,460.6,2.2,0,0,162,77,0.425,0.333,4,1
2017-03-17 15:46,5.16,489.7,3.5,0,0,162,80,1.5,1.939,2,5
2017-03-17 15:47,19.87,593,98.5,0.27,5.14,171,86,16.835,17.322,132,214
2017-03-17 15:48,44.86,910.7,489.7,15.99,23.78,297,193,20,20,250,250
2017-03-17 15:49,34.64,582.5,164.2,30.02,43.88,382,292,20,20,60,52
2017-03-17 15:50,32.17,659.2,204.6,16.09,24.43,186,111,20,20,122,141
2017-03-17 15:51,21.66,500.6,66.4,29.6,25.07,224,207,20,20,12,11
2017-03-17 15:52,20.15,725.7,313.1,8.06,11.17,136,75,12.394,12.484,200,208
2017-03-17 15:53,64.83,730,254.5,17.94,16.82,194,188,20,20,65,63
2017-03-17 15:54,52,768.1,285.8,62.5,63.83,157,79,20,20,157,197
2017-03-17 15:55,94.23,795.8,358.1,47.87,46.92,175,175,1.919,2.65,102,115
2017-03-17 15:56,54.31,624.6,170.7,81.81,83.38,132,154,20,20,14,11
2017-03-17 15:57,16.47,537.2,77.1,30.52,27,102,54,15.598,15.267,4,2
2017-03-17 15:58,5.24,469.7,21.8,24.59,18.34,92,10,6.36,6.092,0,0
2017-03-17 15:59,7.94,528.8,66.9,11.76,8.57,110,17,5.959,5.744,4,5
2017-03-17 16:00,10.37,476.7,27.9,16.59,15.85,153,68,10.227,9.364,0,0
2017-03-17 16:01,3.12,465.8,16.7,18.23,13.41,142,51,4.22,3.683,0,0
2017-03-17 16:02,1.19,489.3,14.4,7.68,9.45,150,49,1.605,1.477,0,0
2017-03-17 16:03,4.22,466.3,12,6.13,7.17,149,53,2.685,2.743,0,0
2017-03-17 16:04,2.67,460.5,13.6,16.83,12.31,169,71,4.556,2.856,2,0
2017-03-17 16:05,0.61,456.8,9.6,7.94,9.72,173,67,1.039,0.901,0,0
2017-03-17 16:06,0.94,455.7,4.5,5.87,7.51,164,62,0.992,0.732,0,0
2017-03-17 16:07,0.28,457.8,4.1,6.8,7.58,165,67,0.554,0.377,1,0
2017-03-17 16:08,0.09,484.6,8.7,5.11,6.91,161,66,0.372,0.298,1,0
2017-03-17 16:09,1.19,476.6,20.9,4.01,6.17,165,64,1.121,1.208,30,56
2017-03-17 16:10,24.16,951.8,668.8,4.99,7.63,164,66,13.062,15.804,250,250
2017-03-17 16:11,31.03,803.4,463.7,35.04,47.54,565,466,20,20,250,250
2017-03-17 16:12,23.87,819.8,429.3,25.45,27.62,376,305,19.558,19.329,250,250
2017-03-17 16:13,22.03,693.3,298.5,23.15,25.35,342,289,19.392,18.657,150,147
2017-03-17 16:14,38.51,561.9,179.4,28.63,22.75,245,174,20,20,67,81
2017-03-17 16:15,19.16,546,113.1,38.08,29.14,157,57,17.133,16.536,21,16
2017-03-17 16:16,24.61,596.8,116.4,23.03,18.6,121,65,20,20,24,19
2017-03-17 16:17,19.44,522.7,55.6,29.92,28.29,126,54,15.982,15.538,0,0
2017-03-17 16:18,14.1,503.1,37,25.51,21.38,110,30,12.732,12.33,0,0
2017-03-17 16:19,10.74,515.6,40.9,23.34,16.89,117,32,9.856,8.947,1,2
2017-03-17 16:20,13.54,518.2,75.9,23.76,16.82,134,51,10.83,9.979,18,18
2017-03-17 16:21,10.27,522.6,41.6,21.02,18.61,171,94,9.818,9.669,17,18
2017-03-17 16:22,14.63,502.1,41.6,15.52,14.43,144,66,14.175,13.564,6,5
2017-03-17 16:23,4.06,465.9,15.8,15.35,14.16,160,57,4.099,3.907,0,0
2017-03-17 16:24,5.23,483.3,33.7,9.42,8.99,148,54,4.733,4.781,3,2
2017-03-17 16:25,2.24,468.1,17.9,9.99,12.09,165,61,2.711,2.468,0,0
2017-03-17 16:26,2,463.8,11.6,4.01,6.97,154,61,2.159,1.961,1,0
2017-03-17 16:27,1.43,467.8,7.2,2.61,5.81,150,53,1.319,1.145,0,0
2017-03-17 16:28,3.02,461.8,8,0.96,3.9,152,56,3.102,2.641,1,0
2017-03-17 16:29,2.44,461.7,8.2,7.56,7.6,153,62,2.769,2.692,0,0
2017-03-17 16:30,2.14,468.7,8.5,5.94,8.01,160,61,2.116,1.884,3,0
2017-03-17 16:31,1.28,460.5,6,7.8,8.78,156,64,1.682,1.514,1,0
2017-03-17 16:32,2.38,487.8,4.5,5.71,6.23,148,61,0.753,0.892,4,0
2017-03-17 16:33,4.65,467.9,5.2,8.51,8.87,143,59,6.067,5.454,0,0
2017-03-17 16:34,0.43,472.9,2.9,7.13,6.64,151,60,0.673,0.578,0,0
2017-03-17 16:35,0.15,454.7,2.7,0.65,1.58,154,61,0.481,0.374,0,0
2017-03-17 16:36,0.08,461.8,2.6,0,0.45,153,60,0.328,0.29,0,0
2017-03-17 16:37,0.14,460.5,5.8,2.5,0.43,161,64,0.378,0.346,0,0
2017-03-17 16:38,0.23,485.7,30.5,5.92,2.3,165,74,0.374,0.363,12,5
2017-03-17 16:39,0.55,484.9,34.8,6.84,3.24,188,89,0.53,0.471,18,15
2017-03-17 16:40,7.32,688.7,260.5,8.79,3.08,185,76,4.829,4.825,176,175
2017-03-17 16:41,28.31,872.7,559.2,16.84,10.94,273,225,18.278,18.496,250,250
2017-03-17 16:42,43.36,974.7,664.5,40.18,28.27,354,306,20,20,250,250
2017-03-17 16:43,48.76,1010.7,697.2,61.83,40.78,360,381,20,20,250,250
2017-03-17 16:44,45.54,1069.4,972.5,46.95,40.66,356,298,20,20,250,250
2017-03-17 16:45,72.1,1158.2,1347.4,39.16,32.85,526,681,20,20,250,250
2017-03-17 16:46,79.52,939.4,749.1,57.21,49.41,686,732,20,20,208,219
2017-03-17 16:47,37.69,867.8,487.2,46.23,44.36,186,98,20,20,135,156
2017-03-17 16:48,24.87,741.6,361.7,25.95,24.7,162,109,20,20,71,85
2017-03-17 16:49,19.25,754.3,340.9,17.91,16.81,187,107,17.416,16.081,118,124
2017-03-17 16:50,24.29,792.4,397.8,22.63,18.68,253,212,20,20,176,176
2017-03-17 16:51,15.2,616.9,206.2,26.78,21.61,302,226,17.739,16.544,38,37
2017-03-17 16:52,13.26,677.7,271.6,15.69,12.3,192,98,10.947,10.522,142,150
2017-03-17 16:53,14.31,651.8,256.2,22.87,20.11,277,198,13.684,12.525,118,116
2017-03-17 16:54,12.69,635.8,240,25.02,20.74,269,168,12.562,12.182,132,137
2017-03-17 16:55,15.79,665.8,286.7,25.43,21.42,257,178,13.182,12.605,156,155
2017-03-17 16:56,10.24,595.7,187.5,30.65,26.49,292,204,11.047,10.335,101,95
2017-03-17 16:57,11.74,606.8,212,23.5,20.99,241,135,9.55,9.416,118,110
2017-03-17 16:58,11.01,641.6,298.5,23.59,22.37,252,165,9.641,8.833,183,180
2017-03-17 16:59,11.66,789.7,449.4,21.4,21.83,345,266,9.731,9.499,250,250
2017-03-17 17:00,46.11,1095.2,910.4,18.25,18.42,364,315,20,20,250,250
2017-03-17 17:01,123.33,768.6,256.1,77.51,71.33,631,501,18.378,19.851,42,48
2017-03-17 17:02,58.96,609.5,100.3,82.42,85.11,36,0,20,20,0,0
2017-03-17 17:03,21.5,512,49.3,61.65,58.55,0,0,20,20,0,0
2017-03-17 17:04,13.97,507.1,61.7,27.15,23.01,48,0,11.644,11.88,0,0
2017-03-17 17:05,19.87,774,532.3,29.94,25.65,100,0,12.068,11.791,250,250
2017-03-17 17:06,55.21,710,340.1,37.53,34.79,501,478,20,20,149,149
2017-03-17 17:07,49.47,640.2,219,53.73,54.19,156,54,20,20,31,41
2017-03-17 17:08,12.83,503.4,52.8,46.22,48.75,120,3,15.504,13.463,0,0
2017-03-17 17:09,2.57,469.7,22.4,18.9,17.37,55,0,3.611,3.028,0,0
2017-03-17 17:10,3.51,479.6,25.1,7.54,4.98,82,0,3.646,3.311,0,0
2017-03-17 17:11,2.43,480.6,18.4,9.21,6.69,105,1,3.232,3.125,0,0
2017-03-17 17:12,1.55,464.1,14.9,9.21,7.72,121,14,2.403,2.174,0,0
2017-03-17 17:13,0.24,458.5,10.5,8.35,4.86,120,16,1.033,0.867,0,0
2017-03-17 17:14,0.04,457.8,8.5,5.09,3.11,127,13,0.58,0.466,0,0
2017-03-17 17:15,0.02,460.4,7.8,2.24,1.72,130,9,0.542,0.444,0,0
2017-03-17 17:16,0.05,459.3,7.5,2.37,1.5,127,18,0.477,0.397,0,0
2017-03-17 17:17,0.02,462.7,7.2,2.83,1.9,134,26,0.435,0.363,0,0
2017-03-17 17:18,0.03,458.9,6.7,2.73,2,137,38,0.421,0.353,0,0
2017-03-17 17:19,0.01,455.8,6,2.82,2.01,135,42,0.43,0.348,0,0
2017-03-17 17:20,0.01,457.8,5.6,2.33,3.03,144,42,0.446,0.368,0,0
2017-03-17 17:21,0.2,466.2,5.5,0,1.14,129,37,0.535,0.455,0,0
2017-03-17 17:22,0.78,463.5,5.5,0,0,130,34,0.962,0.836,0,0
2017-03-17 17:23,0.03,454.6,5.5,0,0,136,38,0.407,0.319,0,0
2017-03-17 17:24,0.02,453.5,6.4,0,0.26,140,41,0.379,0.281,0,0
2017-03-17 17:25,0.01,453.2,6,0.16,0.9,147,49,0.366,0.272,0,0
2017-03-17 17:26,0.02,452.6,5.3,0.2,0.89,143,45,0.374,0.291,0,0
2017-03-17 17:27,0.01,451.7,5.2,1.06,1.53,140,46,0.375,0.311,0,0
2017-03-17 17:28,0.02,451.8,4.8,1.72,2.67,143,44,0.376,0.318,0,0
2017-03-17 17:29,0.2,453.5,9.3,2.36,3.47,137,45,0.525,0.499,0,0
2017-03-17 17:30,0.02,451,4.7,3.24,4.7,140,47,0.403,0.355,1,0
